TimeCDT,TemperatureF,Dew PointF,Humidity,Sea Level PressureIn,VisibilityMPH,Wind Direction,Wind SpeedMPH,Gust SpeedMPH,PrecipitationIn,Events,Conditions,WindDirDegrees,DateUTC
12:15 AM,52.7,38.7,59,29.91,10.0,NNW,5.8,-,N/A,,Clear,340,2012-11-02 05:15:00
12:35 AM,53.1,38.5,58,29.91,10.0,NNW,5.8,-,N/A,,Clear,340,2012-11-02 05:35:00
12:55 AM,52.5,37.4,56,29.91,10.0,NNW,8.1,-,N/A,,Clear,340,2012-11-02 05:55:00
1:15 AM,52.0,36.5,56,29.92,10.0,North,8.1,-,N/A,,Clear,350,2012-11-02 06:15:00
1:35 AM,51.1,36.0,56,29.92,10.0,NNW,5.8,-,N/A,,Clear,340,2012-11-02 06:35:00
1:55 AM,50.5,35.6,57,29.93,10.0,NNW,4.6,-,N/A,,Clear,330,2012-11-02 06:55:00
2:15 AM,50.0,35.1,57,29.94,10.0,NNW,5.8,-,N/A,,Clear,330,2012-11-02 07:15:00
2:35 AM,49.1,34.9,58,29.95,10.0,NNW,4.6,-,N/A,,Clear,330,2012-11-02 07:35:00
2:55 AM,48.2,34.7,60,29.95,10.0,NNW,4.6,-,N/A,,Clear,330,2012-11-02 07:55:00
3:15 AM,47.5,34.7,61,29.95,10.0,NNW,5.8,-,N/A,,Clear,340,2012-11-02 08:15:00
3:35 AM,46.6,34.2,62,29.96,10.0,NNW,4.6,-,N/A,,Clear,330,2012-11-02 08:35:00
3:55 AM,46.0,34.2,63,29.96,10.0,NNW,3.5,-,N/A,,Clear,330,2012-11-02 08:55:00
4:15 AM,45.3,34.0,65,29.98,10.0,NNW,3.5,-,N/A,,Clear,330,2012-11-02 09:15:00
4:35 AM,44.2,33.8,67,29.98,10.0,Calm,Calm,-,N/A,,Clear,0,2012-11-02 09:35:00
4:55 AM,43.7,33.4,67,29.98,10.0,NNW,3.5,-,N/A,,Clear,340,2012-11-02 09:55:00
5:15 AM,43.5,32.9,66,29.99,10.0,Calm,Calm,-,N/A,,Clear,0,2012-11-02 10:15:00
5:35 AM,42.8,32.9,68,30.00,10.0,Calm,Calm,-,N/A,,Clear,0,2012-11-02 10:35:00
5:55 AM,42.3,32.4,68,30.01,10.0,Calm,Calm,-,N/A,,Clear,0,2012-11-02 10:55:00
6:15 AM,41.9,32.0,68,30.02,10.0,Calm,Calm,-,N/A,,Clear,0,2012-11-02 11:15:00
6:35 AM,41.4,32.0,69,30.02,10.0,Calm,Calm,-,N/A,,Clear,0,2012-11-02 11:35:00
6:50 AM,41.0,32.0,70,30.03,10.0,NNW,5.8,-,N/A,,Partly Cloudy,340,2012-11-02 11:50:00
6:55 AM,40.6,32.0,71,30.02,10.0,Calm,Calm,-,N/A,,Clear,0,2012-11-02 11:55:00
7:50 AM,39.2,32.0,75,30.05,10.0,NW,4.6,-,N/A,,Mostly Cloudy,320,2012-11-02 12:50:00
8:50 AM,42.8,32.0,66,30.07,10.0,NNE,8.1,-,N/A,,Mostly Cloudy,20,2012-11-02 13:50:00
9:50 AM,46.4,32.0,57,30.08,10.0,NE,9.2,-,N/A,,Mostly Cloudy,40,2012-11-02 14:50:00
10:50 AM,50.0,32.0,50,30.09,10.0,ENE,6.9,-,N/A,,Mostly Cloudy,60,2012-11-02 15:50:00
12:50 PM,53.6,28.4,38,30.09,10.0,Variable,4.6,-,N/A,,Mostly Cloudy,0,2012-11-02 17:50:00
1:50 PM,55.4,28.4,36,30.06,10.0,Variable,4.6,-,N/A,,Mostly Cloudy,0,2012-11-02 18:50:00
2:50 PM,57.2,26.6,31,30.04,10.0,ENE,8.1,-,N/A,,Mostly Cloudy,70,2012-11-02 19:50:00
3:50 PM,57.2,24.8,29,30.04,10.0,East,9.2,-,N/A,,Mostly Cloudy,90,2012-11-02 20:50:00
4:50 PM,57.2,26.6,31,30.04,10.0,East,9.2,-,N/A,,Mostly Cloudy,90,2012-11-02 21:50:00
5:50 PM,53.6,28.4,38,30.04,10.0,East,8.1,-,N/A,,Mostly Cloudy,90,2012-11-02 22:50:00
7:50 PM,48.2,28.4,46,30.05,10.0,ENE,8.1,-,N/A,,Scattered Clouds,70,2012-11-03 00:50:00
8:50 PM,48.2,32.0,54,30.05,10.0,East,9.2,-,N/A,,Scattered Clouds,100,2012-11-03 01:50:00
9:50 PM,46.4,32.0,57,30.06,10.0,East,9.2,-,N/A,,Scattered Clouds,100,2012-11-03 02:50:00
10:15 PM,47.3,32.9,57,30.06,10.0,East,4.6,-,N/A,,Clear,80,2012-11-03 03:15:00
10:35 PM,46.9,33.3,59,30.06,10.0,East,4.6,-,N/A,,Clear,80,2012-11-03 03:35:00
10:55 PM,47.1,33.3,59,30.07,10.0,ENE,4.6,-,N/A,,Clear,70,2012-11-03 03:55:00
11:15 PM,46.8,33.3,59,30.06,10.0,East,5.8,-,N/A,,Clear,80,2012-11-03 04:15:00
11:35 PM,46.9,33.1,59,30.07,10.0,East,5.8,-,N/A,,Clear,80,2012-11-03 04:35:00
11:55 PM,46.4,33.3,60,30.06,10.0,ENE,8.1,-,N/A,,Clear,70,2012-11-03 04:55:00